TimeEEST,TemperatureF,Dew PointF,Humidity,Sea Level PressureIn,VisibilityMPH,Wind Direction,Wind SpeedMPH,Gust SpeedMPH,PrecipitationIn,Events,Conditions,WindDirDegrees,DateUTC
4:50 AM,62.6,57.2,82,29.89,6.2,NNW,6.9,-,N/A,,Scattered Clouds,340,2012-10-25 01:50:00
5:20 AM,62.6,57.2,82,29.89,6.2,NNW,6.9,-,N/A,,Scattered Clouds,340,2012-10-25 02:20:00
5:50 AM,62.6,57.2,82,29.89,6.2,Calm,Calm,-,N/A,,Scattered Clouds,0,2012-10-25 02:50:00
6:20 AM,62.6,57.2,82,29.89,6.2,North,5.8,-,N/A,,Scattered Clouds,10,2012-10-25 03:20:00
6:50 AM,62.6,57.2,82,29.89,6.2,NNE,6.9,-,N/A,,Scattered Clouds,20,2012-10-25 03:50:00
7:20 AM,64.4,59.0,83,29.89,6.2,Variable,2.3,-,N/A,,Scattered Clouds,0,2012-10-25 04:20:00
7:50 AM,64.4,57.2,77,29.89,6.2,Variable,3.5,-,N/A,,Scattered Clouds,0,2012-10-25 04:50:00
8:20 AM,64.4,57.2,77,29.89,6.2,Variable,3.5,-,N/A,,Scattered Clouds,0,2012-10-25 05:20:00
8:50 AM,64.4,59.0,83,29.89,6.2,NNE,9.2,-,N/A,,Mostly Cloudy,30,2012-10-25 05:50:00
9:00 AM,65,59,74,29.89,6,NNE,9.2,,,,Scattered Clouds,30,2012-10-25 06:00:00
9:20 AM,64.4,59.0,83,29.89,6.2,NNE,9.2,-,N/A,,Mostly Cloudy,30,2012-10-25 06:20:00
9:50 AM,64.4,59.0,83,29.89,6.2,NNE,9.2,-,N/A,,Mostly Cloudy,20,2012-10-25 06:50:00
10:20 AM,64.4,59.0,83,29.89,6.2,ENE,5.8,-,N/A,,Mostly Cloudy,60,2012-10-25 07:20:00
10:50 AM,66.2,59.0,78,29.89,6.2,North,8.1,-,N/A,,Mostly Cloudy,360,2012-10-25 07:50:00
11:20 AM,66.2,59.0,78,29.89,6.2,North,8.1,-,N/A,,Mostly Cloudy,360,2012-10-25 08:20:00
11:50 AM,68.0,59.0,73,29.89,6.2,North,9.2,-,N/A,,Mostly Cloudy,360,2012-10-25 08:50:00
12:20 PM,68.0,59.0,73,29.89,6.2,North,9.2,-,N/A,,Mostly Cloudy,360,2012-10-25 09:20:00
12:50 PM,68.0,60.8,78,29.89,6.2,NNE,9.2,-,N/A,,Mostly Cloudy,30,2012-10-25 09:50:00
1:20 PM,69.8,57.2,64,29.86,6.2,NNE,13.8,-,N/A,,Mostly Cloudy,20,2012-10-25 10:20:00
1:50 PM,69.8,59.0,68,29.86,6.2,North,12.7,-,N/A,,Mostly Cloudy,10,2012-10-25 10:50:00
2:20 PM,69.8,59.0,68,29.86,6.2,North,12.7,-,N/A,,Mostly Cloudy,10,2012-10-25 11:20:00
2:50 PM,71.6,57.2,60,29.83,6.2,North,12.7,-,N/A,,Scattered Clouds,10,2012-10-25 11:50:00
3:00 PM,72,57,49,29.84,6,North,12.7,,,,Partly Cloudy,10,2012-10-25 12:00:00
3:20 PM,73.4,57.2,57,29.83,6.2,North,12.7,-,N/A,,Scattered Clouds,10,2012-10-25 12:20:00
3:50 PM,73.4,57.2,57,29.83,6.2,North,11.5,-,N/A,,Scattered Clouds,10,2012-10-25 12:50:00
4:20 PM,75.2,57.2,53,29.83,6.2,North,11.5,-,N/A,,Scattered Clouds,10,2012-10-25 13:20:00
4:50 PM,75.2,55.4,50,29.83,6.2,North,9.2,-,N/A,,Scattered Clouds,360,2012-10-25 13:50:00
5:20 PM,75.2,55.4,50,29.83,6.2,North,9.2,-,N/A,,Scattered Clouds,360,2012-10-25 14:20:00
5:50 PM,73.4,57.2,57,29.83,6.2,North,9.2,-,N/A,,Scattered Clouds,360,2012-10-25 14:50:00
6:20 PM,71.6,59.0,64,29.83,6.2,Calm,Calm,-,N/A,,Scattered Clouds,0,2012-10-25 15:20:00
6:50 PM,69.8,60.8,73,29.83,6.2,Calm,Calm,-,N/A,,Scattered Clouds,0,2012-10-25 15:50:00
7:20 PM,68.0,60.8,78,29.83,6.2,Calm,Calm,-,N/A,,Scattered Clouds,0,2012-10-25 16:20:00
7:50 PM,66.2,60.8,83,29.83,6.2,Calm,Calm,-,N/A,,Scattered Clouds,0,2012-10-25 16:50:00
8:20 PM,66.2,60.8,83,29.83,6.2,Calm,Calm,-,N/A,,Scattered Clouds,0,2012-10-25 17:20:00
8:50 PM,64.4,60.8,88,29.83,6.2,Calm,Calm,-,N/A,,Scattered Clouds,0,2012-10-25 17:50:00
9:00 PM,65,60,80,29.85,6,Calm,Calm,,,,Partly Cloudy,,2012-10-25 18:00:00
9:50 PM,64.4,59.0,83,29.86,6.2,Calm,Calm,-,N/A,,Scattered Clouds,0,2012-10-25 18:50:00